Location: Unspecified
(0.0000°N, 0.0000°E)
Time: 19:24:18
(UTC+00:00)

deb Delta 126 - Pass Details

Date: 19 February 2026
Orbit: 1501 x 1634 km, 102.6° (Epoch: 11 March)

Event Time Altitude Azimuth Distance (km) Brightness Sun altitude
Rises 05:13:34 0° 354° (N) 4,794 ? -14.8°
Reaches altitude 10° 05:16:56 10° 344° (NNW) 3,794 ? -13.9°
Maximum altitude 05:24:18 30° 288° (WNW) 2,539 ? -12.1°
Drops below altitude 10° 05:31:33 10° 231° (SW) 3,722 ? -10.4°
Sets 05:34:52 0° 221° (SW) 4,689 ? -9.6°
